Location: Piotrkow Trybunalski
(51.4000°N, 19.6830°E)
Time: 01:10:36
(UTC+01:00)

X-37B - Pass Details

Date: 10 December 2022
Orbit: 277 x 277 km, 45.0° (Epoch: 01 November)

Event Time Altitude Azimuth Distance (km) Brightness Sun altitude
Rises 17:00:10 0° 217° (SW) 1,908 5.1 -12.7°
Reaches altitude 10° 17:03:16 10° 173° (S) 1,099 3.0 -13.2°
Maximum altitude 17:03:48 11° 160° (SSE) 1,074 2.8 -13.2°
Drops below altitude 10° 17:04:21 10° 147° (SSE) 1,100 2.7 -13.3°
Enters shadow 17:04:40 - 140° (SE) 1,137 2.7 -13.4°
